Other Surface Observations
Issued by NWS

Home | Current Version | Previous Version | Text Only | Print | Product List | Glossary On
Versions: 1 2 3 4 5 6 7 8 9 10 11 12 13 14 15 16 17 18 19 20 21 22 23 24 25 26 27 28 29 30 31 32 33 34 35 36 37 38 39 40 41 42 43 44 45 46 47 48 49 50
000
SXUS52 KTAE 040919
OSOTAE
OSOTAE
North Florida/South Alabama/Southwest Georgia Weather Roundup
National Weather Service Tallahassee Florida
400 AM EST SUN DEC 04 2016

Note: "fair" indicates few or no clouds below 12,000 feet with no
significant weather and/or obstructions to visibility.

!FLZ017-115-028-034-025-041000
...North Florida...

CITY           SKY/WX    TMP DP  RH WIND       PRES   REMARKS
TALLAHASSEE    CLOUDY    58  51  78 SE13      30.06F
APALACHICOLA   MOCLDY    64  59  83 E15       30.04F
PERRY          CLOUDY    57  52  82 E3        30.09F
CROSS CITY     CLEAR     54  52  94 E5        30.08F
JACKSONVILLE   PTCLDY    51  51 100 CALM      30.12F
$$

!FLZ112-006-005-002-011-041000
...Florida Panhandle...

CITY           SKY/WX    TMP DP  RH WIND       PRES   REMARKS
MARIANNA       CLOUDY    56  48  74 E5        30.05F
BONIFAY        CLOUDY    55  45  68 E5        30.04F
PANAMA CITY NW FAIR      56  47  71 E8        30.01F
TYNDALL AFB    CLEAR     58  51  78 E12       30.01F
TYND DRONE APT NOT AVBL
DE FUNIAK SPR  NOT AVBL
EGLIN AFB      MOCLDY    59  47  65 SE14      29.99F
DESTIN         CLOUDY    61  47  59 E10       30.00F
HURLBURT       MOCLDY    62  50  66 E12       29.99F
CRESTVIEW      CLOUDY    58  43  57 E8        30.03F
PENSACOLA      CLOUDY    61  49  64 E7        29.98F
$$

!ALZ063-066-041000
...South Alabama...

CITY           SKY/WX    TMP DP  RH WIND       PRES   REMARKS
DOTHAN         MOCLDY    56  47  71 E8        30.07F
OZARK CAIRNS   MOCLDY    57  45  64 E9        30.03S
FT RUCKER HELI CLOUDY    58  45  62 VRB7      30.02F
RUCKER HELI 3  NOT AVBL
RUCKER HELI 2  MOCLDY    58  45  62 SE13      30.03F
FLORALA APT    CLOUDY    57  42  57 VRB5      30.03F
ANDALUSIA      CLOUDY    61  43  51 SE10G16   30.01F
TROY           CLOUDY    57  44  62 SE7       30.04F
EUFALA         CLOUDY    57  42  57 SE9       30.05F
MOBILE         CLOUDY    57  46  66 E8        29.97F
$$

!GAZ120>161-041000
...Southwest and South Central Georgia...

CITY           SKY/WX    TMP DP  RH WIND       PRES   REMARKS
THOMASVILLE    FAIR      55  52  88 SE7       30.09S
BAINBRIDGE     PTCLDY    54  48  82 E5        30.07S
MOODY AFB      CLOUDY    55  49  79 E13       30.06F
VALDOSTA       MOCLDY    54  51  90 SE10G22   30.07F
MOULTRIE       MOCLDY    55  50  82 E5        30.09S
BLAKELY        CLOUDY    57  46  67 CALM      30.08R
ALBANY         CLOUDY    55  48  77 E7        30.11F
TIFTON         FAIR      53  48  84 E3        30.10R
FITZGERALD     NOT AVBL
CORDELE        NOT AVBL
AMERICUS       FAIR      52  36  54 E8        30.11S
HOMERVILLE     FAIR      54  50  87 SE9       30.10F
$$

!GMZ750-755-770-775-041000
...Coastal and Buoy Obs...

STATION/POSITION TIME  TEMP    WIND        PRES    VSBY  WAVE
                       AIR SEA DIR/SP/G                  HT/PER
                 (UTC) (F)     (DEG/KT/KT) (MB)    (MI)  (FT/S)
KEATON BEACH     0900   57      80/ 11/ 12 1018.0F
CEDAR KEY        0900   60      70/ 10/ 11 1018.9F
C TOWER          0900   67     120/ 26/ 28 1017.2F
APALACHICOLA BUO 0850   72 74  130/ 19/ 21 1016.7F         5/ 6
PANAMA CITY BUOY 0850   74 75              1014.9F         6/ 6
MOBILE BUOY      0900   76 76  140/ 21/ 27 1012.0
ORANGE BCH AL BU 0850   69 69  130/ 21/ 27 1013.9F         8/ 7
$$




USA.gov is the U.S. government's official web portal to all federal, state and local government web resources and services.